737  
ASUS42 KFFC 071210  
RWRGA  
WEATHER ROUNDUP FOR GEORGIA  
NATIONAL WEATHER SERVICE PEACHTREE CITY GA  
700 AM EST TUE FEB 07 2023  
 
NOTE: "FAIR" INDICATES FEW OR NO CLOUDS BELOW 12,000 FEET WITH NO  
SIGNIFICANT WEATHER AND/OR S TO VISIBILITY
.  
 
* = USE WITH CAUTION. THE STATIONS MARKED WITH AN ASTERISK MAY NOT  
REPORT WEATHER SUCH AS PRECIPITATION, FOG, OR THUNDER AND ARE NOT  
QUALITY CONTROLLED BY NWS.  
 
THE REMARK "TC" DENOTES TEMPERATURE READING IN DEGREES CELSIUS.  
 
GAZ001>058-071300-  
NORTH GEORGIA  
 
CITY SKY/WX TMP DP RH WIND PRES REMARKS
 
ATLANTA MOCLDY 43 31 62 E3 30.27R  
6HR MIN TEMP: 41; 6HR MAX TEMP: 49;  
 
ATHENS CLEAR 33 29 85 E5 30.29R WCI 29  
6HR MIN TEMP: 33; 6HR MAX TEMP: 43;  
 
CHAMBLEE PTCLDY 34 30 85 CALM 30.27R  
6HR MIN TEMP: 34; 6HR MAX TEMP: 39;  
 
PEACHTREE CITY PTCLDY 32 29 88 CALM 30.28R  
6HR MIN TEMP: 32; 6HR MAX TEMP: 37;  
 
ROME PTCLDY 34 31 88 CALM 30.26R  
6HR MIN TEMP: 32; 6HR MAX TEMP: 39;  
 
WEST ATLANTA PTCLDY 34 32 92 CALM 30.27R  
6HR MIN TEMP: 33; 6HR MAX TEMP: 38;  
 
GAINESVILLE PTCLDY 37 31 78 CALM 30.30R  
6HR MIN TEMP: 37; 6HR MAX TEMP: 48;  
 
CARTERSVILLE PTCLDY 36 34 93 CALM 30.27S  
 
 
CITY SKY/WX TMP DP RH WIND PRES REMARKS
 
DALTON* PTCLDY 36 33 89 CALM 30.26R  
LAWRENCEVILLE* PTCLDY 31 30 96 CALM 30.29R  
MARIETTA PTCLDY 35 31 86 CALM 30.26R  
KENNESAW* PTCLDY 35 33 92 NE6 30.28R WCI 30  
CANTON* PTCLDY 38 31 76 E5 30.28R WCI 34  
BLAIRSVILLE* PTCLDY 28 27 94 CALM 30.29R  

 
 
GAZ059>098-102>109-071300-  
CENTRAL GEORGIA  
 
CITY SKY/WX TMP DP RH WIND PRES REMARKS
 
AUGUSTA-BUSH PTCLDY 30 30 100 CALM 30.33R  
6HR MIN TEMP: 29; 6HR MAX TEMP: 36;  
 
AUGUSTA-DANIEL PTCLDY 42 36 79 CALM 30.33R  
6HR MIN TEMP: 41; 6HR MAX TEMP: 49;  
 
COLUMBUS PTCLDY 41 35 79 E3 30.26R  
6HR MIN TEMP: 39; 6HR MAX TEMP: 46;  
 
MACON PTCLDY 34 32 92 CALM 30.29R  
6HR MIN TEMP: 33; 6HR MAX TEMP: 40;  
 
ROBINS AFB PTCLDY 36 36 100 CALM 30.28R  
 
 
CITY SKY/WX TMP DP RH WIND PRES REMARKS
 
LAGRANGE* PTCLDY 32 31 95 CALM 30.26R  
SYLVANIA* PTCLDY 34 33 96 CALM 30.34R  
MILLEDGEVILLE* PTCLDY 36 36 100 CALM 30.30S  

 
 
GAZ099>101-110>166-071300-  
SOUTH GEORGIA  
 
CITY SKY/WX TMP DP RH WIND PRES REMARKS
 
SAVANNAH PTCLDY 39 37 92 CALM 30.33R  
6HR MIN TEMP: 37; 6HR MAX TEMP: 44;  
 
VALDOSTA PTCLDY 40 37 89 CALM 30.28R  
6HR MIN TEMP: 39; 6HR MAX TEMP: 45;  
 
ALMA PTCLDY 38 35 89 CALM 30.29S FOG  
6HR MIN TEMP: 37; 6HR MAX TEMP: 44;  
 
ST SIMONS CLEAR 46 41 82 N3 30.30R  
6HR MIN TEMP: 45; 6HR MAX TEMP: 49;  
 
FT STEWART PTCLDY 36 34 93 CALM 30.29R  
ALBANY PTCLDY 40 36 86 CALM 30.29R  
HUNTER AFB PTCLDY 42 42 100 CALM 30.30R  
MOODY AFB PTCLDY 41 38 87 CALM 30.27R  
BRUNSWICK FOG 37 36 96 CALM 30.31R VSB 1  
 
 
CITY SKY/WX TMP DP RH WIND PRES REMARKS
 
BAINBRIDGE* CLEAR 45 42 87 SE7 30.26R  
VIDALIA* PTCLDY 41 37 87 CALM 30.31R  
WAYCROSS* PTCLDY 40 39 96 CALM 30.30R FOG  
DOUGLAS* PTCLDY 41 39 92 CALM 30.30S  

 
 
 
CLICK HERE TO GO TO PREVIOUS BULLETINS.

The Nexlab GA Page Main Text Page